Regional Weather Roundup
Issued by NWS

Home | Current Version | Previous Version | Graphics & Text | Print | Product List | Glossary On
Versions: 1 2 3 4 5 6 7 8 9 10 11 12 13 14 15 16 17 18 19 20 21 22 23 24 25 26 27 28 29 30 31 32 33 34 35 36 37 38 39 40 41 42 43 44 45 46 47 48 49 50
000
ASUS43 KOAX 241410
RWRNE

WEATHER ROUNDUP FOR NEBRASKA
NATIONAL WEATHER SERVICE OMAHA NE
900 AM CDT SUN MAY 24 2015

NOTES: SATELLITE DATA IS BEING USED TO AUGMENT CLOUD COVER ABOVE
       12000 FEET.
       "FAIR" INDICATES FEW OR NO CLOUDS BELOW 12,000 FEET WITH NO
       SIGNIFICANT WEATHER AND/OR OBSTRUCTIONS TO VISIBILITY.

  * THESE STATIONS DO NOT REPORT WEATHER SUCH AS RAIN...SNOW OR FOG.

NEZ001>004-019>022-054>056-241500-
NEBRASKA PANHANDLE

CITY           SKY/WX    TMP DP  RH WIND       PRES   REMARKS
SCOTTSBLUFF    CLOUDY    53  51  93 CALM      29.89S
ALLIANCE       CLOUDY    53  51  93 N10       29.88S
CHADRON        CLOUDY    52  51  97 E8        29.89F
KIMBALL          N/A    N/A N/A N/A MISG        N/A
SIDNEY         CLOUDY    50  49  96 W6        29.88F
$$

NEZ057>060-069>072-079>082-241500-
SOUTHWEST NEBRASKA

CITY           SKY/WX    TMP DP  RH WIND       PRES   REMARKS
NORTH PLATTE   CLOUDY    56  54  93 SE7       29.88S
IMPERIAL       CLOUDY    56  52  86 S8        29.87F
LEXINGTON      CLOUDY    59  58  96 S5        29.88S
MCCOOK         CLOUDY    59  55  87 SE7       29.87S
OGALLALA       CLOUDY    55  54  97 SE3       29.88S FOG
$$

NEZ005>010-023>029-035>040-094-241500-
NORTH CENTRAL NEBRASKA

CITY           SKY/WX    TMP DP  RH WIND       PRES   REMARKS
VALENTINE      LGT RAIN  55  54  96 E10       29.91F
AINSWORTH      CLOUDY    56  56 100 E8        29.91F FOG
BROKEN BOW     CLOUDY    60  57  89 E6        29.87F
O`NEILL        CLOUDY    58  58  99 NE7       29.92F FOG
ORD            CLOUDY    58  57  97 E7        29.87F FOG
THEDFORD       CLOUDY    57  56  97 E12       29.87F FOG
$$

NEZ041-046>049-061>064-073>077-083>087-241500-
SOUTH CENTRAL NEBRASKA

CITY           SKY/WX    TMP DP  RH WIND       PRES   REMARKS
GRAND ISLAND   CLOUDY    59  59 100 CALM      29.88F FOG
AURORA         CLOUDY    60  60 100 CALM      29.87F FOG
HASTINGS       CLOUDY    59  58  96 VRB3      29.87F
HEBRON         CLOUDY    62  59  91 W3        29.87F
HOLDREGE       CLOUDY    58  56  93 S3        29.87F
KEARNEY *      CLOUDY    59  55  88 CALM      29.87F
YORK           CLOUDY    59  59 100 CALM      29.88S FOG
$$

NEZ011>018-030>034-042>045-241500-
NORTHEAST NEBRASKA

CITY           SKY/WX    TMP DP  RH WIND       PRES   REMARKS
NORFOLK        RAIN     N/A N/A N/A E7        29.87F
ALBION         DRIZZLE   59  57  94 CALM      29.89F
BLAIR          LGT RAIN  60  58  94 E6        29.86F
COLUMBUS *     CLOUDY    59  54  82 E7        29.89F
FREMONT        CLOUDY    61  60  95 E6        29.86F FOG
TEKAMAH        CLOUDY    62  60  93 E8        29.86F
WAYNE          RAIN      60  58  96 E8        29.89F
$$

NEZ050>053-065>068-078-088>093-241500-
SOUTHEAST NEBRASKA

CITY           SKY/WX    TMP DP  RH WIND       PRES   REMARKS
LINCOLN        CLOUDY    61  60  97 CALM      29.85F FOG
OMAHA EPPLEY   DRIZZLE   61  60  97 E7        29.85F FOG
BEATRICE       CLOUDY    61  61  99 W6        29.85F FOG
FALLS CITY     CLOUDY    64  62  93 S6        29.84F
NEBRASKA CITY  CLOUDY    62  62 100 S5        29.84F FOG
PLATTSMOUTH    CLOUDY    61  59  94 E6        29.85F FOG
$$

NEZ044-045-051>053-067-241500-
OMAHA AREA

CITY           SKY/WX    TMP DP  RH WIND       PRES   REMARKS
OMAHA EPPLEY   DRIZZLE   61  60  97 E7        29.85F FOG
BLAIR          LGT RAIN  60  58  94 E6        29.86F
FREMONT        CLOUDY    61  60  95 E6        29.86F FOG
MILLARD        CLOUDY    62  60  95 CALM      29.85F FOG
OFFUTT AFB     CLOUDY    63  61  94 E5        29.84F
PLATTSMOUTH    CLOUDY    61  59  94 E6        29.85F FOG
WAHOO          DRIZZLE   61  60  97 E6        29.85F
$$



USA.gov is the U.S. government's official web portal to all federal, state and local government web resources and services.